Volver al catálogo

AE1D

ActivoCienciaPO
NORAD 62618·PAYLOAD·🇯🇵 Japan

Lanzado Jan 14, 2025 desde Vandenberg Space Force Base

Loading…

Próximos Pases (próximas 24 horas)

TLE

ActualizadoSource: Space-Track

Época: Sep 14, 2026, 11:55 UTC

1 62618U 25009K   26257.49663488  .00636221  17482-3  15154-2 0  9992
2 62618  97.3837 352.9286 0008576 263.7397  96.2903 15.96594227 93494

Sigue AE1D en tiempo real con AllMySat

Download on the App Store